ITASAT 1 (43786 NORAD) Tracking and Keplerian Element Data

This shows tracking and keplerian element data for the satellite.

Feedback or suggestion? Click here.




ElementValue
Catalog43786
NameITASAT 1
Epoch Orbit21645
Epoch Day324.87121517
Epoch Year2022
RAAN28.0779
Inclination97.6076
Eccentricity0.0016461
Argument of Perigee102.3784
Mean Anonmoly257.9282
Mean Motion14.97336887
Decay Rate2.761E-05
L11 43786U 18099AE 22324.87121517 .00002761 00000+0 24218-3 0 9995
L22 43786 97.6076 28.0779 0016461 102.3784 257.9282 14.97336887216450



Live tracking and technical data element details for ITASAT 1 (NORAD 43786). ITASAT 1 can be tracked NOW for your location showing map with azimuth and elevation plus other details from your city location.







IsCatalogInMostPopularTable: catalog: 43786, numindb: 436
Update: records affected: 1



GetName: 43786 ITASAT 1

Hit Count: updated at: Mon, 28 Nov 2022 06:02:36 GMT